Time,TemperatureF,DewpointF,PressureIn,WindDirection,WindDirectionDegrees,WindSpeedMPH,WindSpeedGustMPH,Humidity,HourlyPrecipIn,Conditions,Clouds,dailyrainin,SoftwareType,DateUTC
2013-05-03 00:01:00,56.1,55.0,30.03,WNW,297,3.0,18.0,96,0.01,,---,0.08,VWS V14.01,2013-05-03 05:01:00,
2013-05-03 00:06:00,56.0,54.9,30.03,WSW,258,5.0,18.0,96,0.01,,---,0.00,VWS V14.01,2013-05-03 05:06:00,
2013-05-03 00:11:00,55.8,54.7,30.03,West,279,6.0,15.0,96,0.00,,---,0.00,VWS V14.01,2013-05-03 05:11:00,
2013-05-03 00:16:00,55.7,54.6,30.03,SE,129,3.0,15.0,96,0.00,,---,0.00,VWS V14.01,2013-05-03 05:16:00,
2013-05-03 00:21:00,55.4,54.3,30.03,WNW,289,5.0,15.0,96,0.00,,---,0.00,VWS V14.01,2013-05-03 05:21:00,
2013-05-03 00:26:00,55.3,54.2,30.03,WNW,302,4.0,15.0,96,0.00,,---,0.00,VWS V14.01,2013-05-03 05:26:00,
2013-05-03 00:31:00,55.1,54.0,30.03,WSW,241,4.0,15.0,96,0.00,,---,0.00,VWS V14.01,2013-05-03 05:31:00,
2013-05-03 00:36:00,55.0,53.9,30.03,West,277,10.0,15.0,96,0.00,,---,0.00,VWS V14.01,2013-05-03 05:36:00,
2013-05-03 00:41:00,54.9,53.8,30.03,West,266,6.0,16.0,96,0.00,,---,0.00,VWS V14.01,2013-05-03 05:41:00,
2013-05-03 00:46:00,54.9,53.8,30.03,WNW,287,2.0,16.0,96,0.00,,---,0.00,VWS V14.01,2013-05-03 05:46:00,
2013-05-03 00:51:00,54.9,53.8,30.03,West,271,0.0,16.0,96,0.00,,---,0.00,VWS V14.01,2013-05-03 05:51:00,
2013-05-03 00:57:00,54.8,53.7,30.03,WSW,256,3.0,16.0,96,0.00,,---,0.00,VWS V14.01,2013-05-03 05:57:00,
2013-05-03 01:02:00,54.7,53.6,30.03,WNW,288,5.0,16.0,96,0.00,,---,0.00,VWS V14.01,2013-05-03 06:02:00,
2013-05-03 01:06:00,54.5,53.4,30.03,West,279,5.0,16.0,96,0.00,,---,0.00,VWS V14.01,2013-05-03 06:06:00,
2013-05-03 01:07:00,54.5,53.4,30.03,WNW,287,3.0,6.0,96,0.00,,---,0.00,VWS V14.01,2013-05-03 06:07:00,
2013-05-03 01:12:00,54.4,53.3,30.02,West,271,4.0,7.0,96,0.00,,---,0.00,VWS V14.01,2013-05-03 06:12:00,
2013-05-03 01:17:00,54.1,53.0,30.02,WSW,245,4.0,12.0,96,0.00,,---,0.00,VWS V14.01,2013-05-03 06:17:00,
2013-05-03 01:22:00,53.9,52.5,30.02,WSW,253,8.0,12.0,95,0.00,,---,0.00,VWS V14.01,2013-05-03 06:22:00,
2013-05-03 01:27:00,53.6,52.2,30.03,West,272,2.0,16.0,95,0.00,,---,0.00,VWS V14.01,2013-05-03 06:27:00,
2013-05-03 01:32:00,53.4,52.3,30.02,WNW,298,5.0,16.0,96,0.00,,---,0.00,VWS V14.01,2013-05-03 06:32:00,
2013-05-03 01:36:00,53.3,51.9,30.02,WNW,292,8.0,16.0,95,0.00,,---,0.00,VWS V14.01,2013-05-03 06:36:00,
2013-05-03 01:37:00,53.3,51.9,30.02,WNW,298,5.0,8.0,95,0.00,,---,0.00,VWS V14.01,2013-05-03 06:37:00,
2013-05-03 01:42:00,53.1,51.7,30.02,NW,306,4.0,18.0,95,0.00,,---,0.00,VWS V14.01,2013-05-03 06:42:00,
2013-05-03 01:47:00,53.0,51.9,30.02,West,271,4.0,18.0,96,0.00,,---,0.00,VWS V14.01,2013-05-03 06:47:00,
2013-05-03 01:52:00,52.9,51.8,30.02,West,269,5.0,18.0,96,0.00,,---,0.00,VWS V14.01,2013-05-03 06:52:00,
2013-05-03 01:57:00,52.7,51.3,30.01,WNW,290,5.0,18.0,95,0.00,,---,0.00,VWS V14.01,2013-05-03 06:57:00,
2013-05-03 02:02:00,52.5,51.1,30.01,West,263,6.0,18.0,95,0.00,,---,0.00,VWS V14.01,2013-05-03 07:02:00,
2013-05-03 02:07:00,52.3,50.9,30.01,West,276,8.0,10.0,95,0.00,,---,0.00,VWS V14.01,2013-05-03 07:07:00,
2013-05-03 02:12:00,52.3,51.2,30.01,WNW,282,3.0,11.0,96,0.00,,---,0.00,VWS V14.01,2013-05-03 07:12:00,
2013-05-03 02:17:00,52.2,51.1,30.01,West,262,7.0,11.0,96,0.00,,---,0.00,VWS V14.01,2013-05-03 07:17:00,
2013-05-03 02:22:00,52.2,51.1,30.01,West,271,3.0,11.0,96,0.00,,---,0.00,VWS V14.01,2013-05-03 07:22:00,
2013-05-03 02:27:00,52.1,51.0,30.01,West,273,6.0,11.0,96,0.00,,---,0.00,VWS V14.01,2013-05-03 07:27:00,
2013-05-03 02:32:00,52.0,50.9,30.01,WNW,302,2.0,11.0,96,0.00,,---,0.00,VWS V14.01,2013-05-03 07:32:00,
2013-05-03 02:37:00,51.9,50.8,30.01,WNW,290,8.0,8.0,96,0.00,,---,0.00,VWS V14.01,2013-05-03 07:37:00,
2013-05-03 02:42:00,51.8,50.7,30.01,NW,310,4.0,8.0,96,0.00,,---,0.00,VWS V14.01,2013-05-03 07:42:00,
2013-05-03 02:47:00,51.7,50.6,30.01,WNW,282,7.0,12.0,96,0.00,,---,0.00,VWS V14.01,2013-05-03 07:47:00,
2013-05-03 02:52:00,51.5,50.4,30.01,WSW,254,3.0,12.0,96,0.00,,---,0.00,VWS V14.01,2013-05-03 07:52:00,
2013-05-03 02:57:00,51.4,50.3,30.01,SW,234,1.0,12.0,96,0.00,,---,0.00,VWS V14.01,2013-05-03 07:57:00,
2013-05-03 03:02:00,51.3,50.2,30.01,WNW,292,2.0,12.0,96,0.00,,---,0.00,VWS V14.01,2013-05-03 08:02:00,
2013-05-03 03:06:00,51.1,50.0,30.01,NW,320,2.0,12.0,96,0.00,,---,0.00,VWS V14.01,2013-05-03 08:06:00,
2013-05-03 03:07:00,51.1,50.0,30.01,WNW,290,8.0,9.0,96,0.00,,---,0.00,VWS V14.01,2013-05-03 08:07:00,
2013-05-03 03:12:00,50.8,49.7,30.01,NW,317,3.0,13.0,96,0.00,,---,0.00,VWS V14.01,2013-05-03 08:12:00,
2013-05-03 03:17:00,50.6,49.5,30.01,WNW,288,4.0,13.0,96,0.00,,---,0.00,VWS V14.01,2013-05-03 08:17:00,
2013-05-03 03:22:00,50.4,49.3,30.01,NW,319,2.0,16.0,96,0.01,,---,0.01,VWS V14.01,2013-05-03 08:22:00,
2013-05-03 03:27:00,50.2,49.1,30.01,WNW,284,7.0,16.0,96,0.01,,---,0.01,VWS V14.01,2013-05-03 08:27:00,
2013-05-03 03:32:00,50.1,49.0,30.01,WNW,288,2.0,16.0,96,0.01,,---,0.01,VWS V14.01,2013-05-03 08:32:00,
2013-05-03 03:36:00,50.0,48.9,30.01,West,263,0.0,16.0,96,0.01,,---,0.01,VWS V14.01,2013-05-03 08:36:00,
2013-05-03 03:37:00,50.0,48.9,30.01,SW,229,3.0,3.0,96,0.01,,---,0.01,VWS V14.01,2013-05-03 08:37:00,
2013-05-03 03:42:00,49.9,48.8,30.01,West,267,3.0,5.0,96,0.01,,---,0.01,VWS V14.01,2013-05-03 08:42:00,
2013-05-03 03:47:00,49.9,48.8,30.01,WSW,248,3.0,8.0,96,0.01,,---,0.01,VWS V14.01,2013-05-03 08:47:00,
2013-05-03 03:52:00,49.7,48.6,30.01,WNW,302,2.0,8.0,96,0.01,,---,0.01,VWS V14.01,2013-05-03 08:52:00,
2013-05-03 03:57:00,49.6,48.5,30.01,West,260,2.0,11.0,96,0.01,,---,0.01,VWS V14.01,2013-05-03 08:57:00,
2013-05-03 04:02:00,49.3,48.2,30.01,West,280,2.0,11.0,96,0.01,,---,0.01,VWS V14.01,2013-05-03 09:02:00,
2013-05-03 04:06:00,49.2,48.1,30.01,West,273,4.0,11.0,96,0.01,,---,0.01,VWS V14.01,2013-05-03 09:06:00,
2013-05-03 04:07:00,49.2,48.1,30.01,WNW,292,1.0,6.0,96,0.01,,---,0.01,VWS V14.01,2013-05-03 09:07:00,
2013-05-03 04:12:00,49.1,48.0,30.02,West,267,7.0,9.0,96,0.01,,---,0.01,VWS V14.01,2013-05-03 09:12:00,
2013-05-03 04:17:00,49.0,47.9,30.02,WSW,240,3.0,11.0,96,0.01,,---,0.01,VWS V14.01,2013-05-03 09:17:00,
2013-05-03 04:22:00,48.9,47.8,30.02,West,264,17.0,17.0,96,0.01,,---,0.01,VWS V14.01,2013-05-03 09:22:00,
2013-05-03 04:27:00,48.7,47.6,30.02,SW,224,2.0,17.0,96,0.01,,---,0.01,VWS V14.01,2013-05-03 09:27:00,
2013-05-03 04:32:00,48.6,47.5,30.02,NW,306,3.0,17.0,96,0.01,,---,0.01,VWS V14.01,2013-05-03 09:32:00,
2013-05-03 04:36:00,48.5,47.4,30.02,West,280,12.0,17.0,96,0.01,,---,0.01,VWS V14.01,2013-05-03 09:36:00,
2013-05-03 04:37:00,48.4,47.3,30.02,West,261,2.0,12.0,96,0.00,,---,0.01,VWS V14.01,2013-05-03 09:37:00,
2013-05-03 04:42:00,48.3,47.2,30.02,WNW,301,6.0,12.0,96,0.00,,---,0.01,VWS V14.01,2013-05-03 09:42:00,
2013-05-03 04:47:00,48.3,47.2,30.02,West,265,5.0,12.0,96,0.00,,---,0.01,VWS V14.01,2013-05-03 09:47:00,
2013-05-03 04:52:00,48.2,47.1,30.02,NW,306,6.0,12.0,96,0.00,,---,0.01,VWS V14.01,2013-05-03 09:52:00,
2013-05-03 04:57:00,48.0,46.6,30.02,WNW,290,8.0,14.0,95,0.00,,---,0.01,VWS V14.01,2013-05-03 09:57:00,
2013-05-03 05:02:00,47.8,46.7,30.02,WSW,240,4.0,14.0,96,0.00,,---,0.01,VWS V14.01,2013-05-03 10:02:00,
2013-05-03 05:06:00,47.7,46.6,30.03,WNW,298,3.0,14.0,96,0.00,,---,0.01,VWS V14.01,2013-05-03 10:06:00,
2013-05-03 05:07:00,47.7,46.3,30.02,NW,317,4.0,6.0,95,0.00,,---,0.01,VWS V14.01,2013-05-03 10:07:00,
2013-05-03 05:12:00,47.6,46.2,30.03,WNW,291,5.0,12.0,95,0.00,,---,0.01,VWS V14.01,2013-05-03 10:12:00,
2013-05-03 05:17:00,47.4,46.3,30.03,WNW,286,5.0,15.0,96,0.00,,---,0.01,VWS V14.01,2013-05-03 10:17:00,
2013-05-03 05:22:00,47.4,46.3,30.03,NW,304,2.0,15.0,96,0.00,,---,0.01,VWS V14.01,2013-05-03 10:22:00,
2013-05-03 05:27:00,47.3,46.2,30.03,WNW,282,2.0,15.0,96,0.00,,---,0.01,VWS V14.01,2013-05-03 10:27:00,
2013-05-03 05:32:00,47.2,46.1,30.03,WNW,295,12.0,15.0,96,0.00,,---,0.01,VWS V14.01,2013-05-03 10:32:00,
2013-05-03 05:36:00,47.1,46.0,30.03,NW,313,3.0,15.0,96,0.00,,---,0.01,VWS V14.01,2013-05-03 10:36:00,
2013-05-03 05:37:00,47.1,45.7,30.03,WSW,244,3.0,6.0,95,0.00,,---,0.01,VWS V14.01,2013-05-03 10:37:00,
2013-05-03 05:42:00,47.1,46.0,30.04,WNW,294,7.0,10.0,96,0.00,,---,0.01,VWS V14.01,2013-05-03 10:42:00,
2013-05-03 05:47:00,47.1,45.7,30.04,WSW,246,5.0,12.0,95,0.00,,---,0.01,VWS V14.01,2013-05-03 10:47:00,
2013-05-03 05:52:00,47.0,45.7,30.04,WNW,300,5.0,14.0,95,0.00,,---,0.01,VWS V14.01,2013-05-03 10:52:00,
2013-05-03 05:57:00,46.9,45.5,30.03,WNW,298,5.0,14.0,95,0.00,,---,0.01,VWS V14.01,2013-05-03 10:57:00,
2013-05-03 06:02:00,46.7,45.3,30.03,West,281,4.0,14.0,95,0.00,,---,0.01,VWS V14.01,2013-05-03 11:02:00,
2013-05-03 06:06:00,46.7,45.3,30.03,WSW,248,1.0,14.0,95,0.00,,---,0.01,VWS V14.01,2013-05-03 11:06:00,
2013-05-03 06:07:00,46.7,45.3,30.03,SW,219,3.0,4.0,95,0.00,,---,0.01,VWS V14.01,2013-05-03 11:07:00,
2013-05-03 06:12:00,46.6,45.2,30.04,WNW,294,4.0,14.0,95,0.00,,---,0.01,VWS V14.01,2013-05-03 11:12:00,
2013-05-03 06:17:00,46.4,45.0,30.04,West,277,4.0,14.0,95,0.00,,---,0.01,VWS V14.01,2013-05-03 11:17:00,
2013-05-03 06:22:00,46.4,45.0,30.04,West,259,3.0,14.0,95,0.00,,---,0.01,VWS V14.01,2013-05-03 11:22:00,
2013-05-03 06:27:00,46.3,45.0,30.04,WNW,284,7.0,14.0,95,0.00,,---,0.01,VWS V14.01,2013-05-03 11:27:00,
2013-05-03 06:32:00,46.2,44.8,30.04,West,263,7.0,14.0,95,0.00,,---,0.01,VWS V14.01,2013-05-03 11:32:00,
2013-05-03 06:36:00,46.2,44.8,30.04,WNW,293,3.0,14.0,95,0.00,,---,0.01,VWS V14.01,2013-05-03 11:36:00,
2013-05-03 06:37:00,46.2,44.8,30.04,SW,214,4.0,6.0,95,0.00,,---,0.01,VWS V14.01,2013-05-03 11:37:00,
2013-05-03 06:42:00,46.2,44.8,30.05,NW,309,1.0,11.0,95,0.00,,---,0.01,VWS V14.01,2013-05-03 11:42:00,
2013-05-03 06:48:00,46.2,44.8,30.05,West,265,13.0,13.0,95,0.00,,---,0.01,VWS V14.01,2013-05-03 11:48:00,
2013-05-03 06:53:00,46.3,45.0,30.05,West,280,3.0,13.0,95,0.00,,---,0.01,VWS V14.01,2013-05-03 11:53:00,
2013-05-03 06:58:00,46.3,45.0,30.06,SSW,192,7.0,14.0,95,0.00,,---,0.01,VWS V14.01,2013-05-03 11:58:00,
2013-05-03 07:03:00,46.3,45.0,30.05,SW,221,0.0,14.0,95,0.00,,---,0.01,VWS V14.01,2013-05-03 12:03:00,
2013-05-03 07:08:00,46.3,45.0,30.06,SW,232,5.0,9.0,95,0.00,,---,0.01,VWS V14.01,2013-05-03 12:08:00,
2013-05-03 07:13:00,46.3,45.0,30.06,SW,221,1.0,10.0,95,0.00,,---,0.01,VWS V14.01,2013-05-03 12:13:00,
2013-05-03 07:18:00,46.3,45.0,30.06,WNW,283,2.0,10.0,95,0.00,,---,0.01,VWS V14.01,2013-05-03 12:18:00,
2013-05-03 07:23:00,46.3,45.0,30.06,West,281,4.0,10.0,95,0.00,,---,0.01,VWS V14.01,2013-05-03 12:23:00,
2013-05-03 07:28:00,46.3,45.0,30.06,WNW,286,0.0,11.0,95,0.00,,---,0.01,VWS V14.01,2013-05-03 12:28:00,
2013-05-03 07:33:00,46.5,45.2,30.06,SSW,213,3.0,11.0,95,0.00,,---,0.01,VWS V14.01,2013-05-03 12:33:00,
2013-05-03 07:38:00,46.5,44.9,30.06,West,271,1.0,10.0,94,0.00,,---,0.01,VWS V14.01,2013-05-03 12:38:00,
2013-05-03 07:43:00,46.2,44.6,30.07,WNW,299,6.0,10.0,94,0.00,,---,0.01,VWS V14.01,2013-05-03 12:43:00,
2013-05-03 07:48:00,46.1,44.5,30.07,WSW,250,7.0,10.0,94,0.00,,---,0.01,VWS V14.01,2013-05-03 12:48:00,
2013-05-03 07:53:00,46.0,44.4,30.07,SSW,199,2.0,11.0,94,0.00,,---,0.01,VWS V14.01,2013-05-03 12:53:00,
2013-05-03 07:58:00,46.0,44.4,30.07,WNW,292,2.0,13.0,94,0.00,,---,0.01,VWS V14.01,2013-05-03 12:58:00,
2013-05-03 08:03:00,46.0,44.4,30.07,WNW,292,5.0,13.0,94,0.00,,---,0.01,VWS V14.01,2013-05-03 13:03:00,
2013-05-03 08:08:00,46.1,44.5,30.07,West,261,4.0,5.0,94,0.00,,---,0.01,VWS V14.01,2013-05-03 13:08:00,
2013-05-03 08:13:00,46.0,44.4,30.07,West,265,5.0,13.0,94,0.00,,---,0.01,VWS V14.01,2013-05-03 13:13:00,
2013-05-03 08:18:00,45.8,44.2,30.07,SSW,211,3.0,13.0,94,0.00,,---,0.01,VWS V14.01,2013-05-03 13:18:00,
2013-05-03 08:23:00,45.8,44.2,30.07,NW,307,2.0,13.0,94,0.00,,---,0.01,VWS V14.01,2013-05-03 13:23:00,
2013-05-03 08:28:00,45.9,44.3,30.07,WNW,294,2.0,13.0,94,0.00,,---,0.01,VWS V14.01,2013-05-03 13:28:00,
2013-05-03 08:33:00,45.8,44.2,30.07,WNW,302,3.0,13.0,94,0.00,,---,0.01,VWS V14.01,2013-05-03 13:33:00,
2013-05-03 08:36:00,45.9,44.3,30.07,WNW,284,8.0,13.0,94,0.00,,---,0.01,VWS V14.01,2013-05-03 13:36:00,
2013-05-03 08:38:00,45.8,43.9,30.07,WSW,242,4.0,9.0,93,0.00,,---,0.01,VWS V14.01,2013-05-03 13:38:00,
2013-05-03 08:43:00,46.0,44.1,30.08,SW,221,6.0,9.0,93,0.00,,---,0.01,VWS V14.01,2013-05-03 13:43:00,
2013-05-03 08:48:00,45.8,43.6,30.07,SSW,196,1.0,16.0,92,0.00,,---,0.01,VWS V14.01,2013-05-03 13:48:00,
2013-05-03 08:53:00,46.0,44.1,30.07,West,267,0.0,16.0,93,0.00,,---,0.01,VWS V14.01,2013-05-03 13:53:00,
2013-05-03 08:58:00,46.1,44.2,30.08,NW,311,3.0,16.0,93,0.00,,---,0.01,VWS V14.01,2013-05-03 13:58:00,
2013-05-03 09:03:00,46.0,43.8,30.08,WNW,284,3.0,16.0,92,0.00,,---,0.01,VWS V14.01,2013-05-03 14:03:00,
2013-05-03 09:06:00,45.9,43.7,30.08,WNW,299,5.0,16.0,92,0.00,,---,0.01,VWS V14.01,2013-05-03 14:06:00,
2013-05-03 09:08:00,45.8,43.3,30.08,West,281,6.0,9.0,91,0.00,,---,0.01,VWS V14.01,2013-05-03 14:08:00,
2013-05-03 09:13:00,45.8,43.3,30.08,WNW,286,3.0,12.0,91,0.00,,---,0.01,VWS V14.01,2013-05-03 14:13:00,
2013-05-03 09:18:00,45.9,43.4,30.08,WNW,292,2.0,12.0,91,0.00,,---,0.01,VWS V14.01,2013-05-03 14:18:00,
2013-05-03 09:23:00,45.9,43.4,30.08,NW,305,2.0,12.0,91,0.00,,---,0.01,VWS V14.01,2013-05-03 14:23:00,
2013-05-03 09:28:00,45.8,43.3,30.08,WSW,252,2.0,12.0,91,0.00,,---,0.01,VWS V14.01,2013-05-03 14:28:00,
2013-05-03 09:33:00,45.9,43.4,30.08,East,79,2.0,12.0,91,0.00,,---,0.01,VWS V14.01,2013-05-03 14:33:00,
2013-05-03 09:36:00,46.1,43.6,30.08,West,279,3.0,12.0,91,0.00,,---,0.01,VWS V14.01,2013-05-03 14:36:00,
2013-05-03 09:38:00,46.4,44.2,30.08,WNW,288,4.0,5.0,92,0.00,,---,0.01,VWS V14.01,2013-05-03 14:38:00,
2013-05-03 09:43:00,46.7,44.2,30.08,SW,228,6.0,10.0,91,0.00,,---,0.01,VWS V14.01,2013-05-03 14:43:00,
2013-05-03 09:48:00,46.6,43.8,30.08,West,263,5.0,12.0,90,0.00,,---,0.01,VWS V14.01,2013-05-03 14:48:00,
2013-05-03 09:53:00,46.6,43.8,30.08,WSW,246,0.0,12.0,90,0.00,,---,0.01,VWS V14.01,2013-05-03 14:53:00,
2013-05-03 09:58:00,46.4,43.6,30.08,WNW,286,5.0,19.0,90,0.00,,---,0.01,VWS V14.01,2013-05-03 14:58:00,
2013-05-03 10:03:00,46.6,43.8,30.09,NW,316,2.0,19.0,90,0.00,,---,0.01,VWS V14.01,2013-05-03 15:03:00,
2013-05-03 10:06:00,47.0,44.2,30.09,WNW,288,6.0,19.0,90,0.00,,---,0.01,VWS V14.01,2013-05-03 15:06:00,
2013-05-03 10:08:00,47.2,44.1,30.09,NNW,342,4.0,11.0,89,0.00,,---,0.01,VWS V14.01,2013-05-03 15:08:00,
2013-05-03 10:13:00,47.1,43.7,30.09,West,264,10.0,13.0,88,0.00,,---,0.01,VWS V14.01,2013-05-03 15:13:00,
2013-05-03 10:18:00,47.0,43.3,30.09,North,355,4.0,13.0,87,0.00,,---,0.01,VWS V14.01,2013-05-03 15:18:00,
2013-05-03 10:23:00,47.5,43.8,30.10,NE,44,3.0,13.0,87,0.00,,---,0.01,VWS V14.01,2013-05-03 15:23:00,
2013-05-03 10:28:00,47.2,42.9,30.10,WNW,288,8.0,13.0,85,0.00,,---,0.01,VWS V14.01,2013-05-03 15:28:00,
2013-05-03 10:33:00,46.8,42.5,30.09,NNW,333,2.0,14.0,85,0.00,,---,0.01,VWS V14.01,2013-05-03 15:33:00,
2013-05-03 10:36:00,46.9,43.2,30.09,West,277,5.0,14.0,87,0.00,,---,0.01,VWS V14.01,2013-05-03 15:36:00,
2013-05-03 10:43:00,48.5,44.8,30.09,West,281,7.0,9.0,87,0.00,,---,0.01,VWS V14.01,2013-05-03 15:43:00,
2013-05-03 10:48:00,49.4,45.1,30.09,NNE,15,0.0,10.0,85,0.00,,---,0.01,VWS V14.01,2013-05-03 15:48:00,
2013-05-03 10:53:00,49.7,45.1,30.09,SSE,167,4.0,10.0,84,0.00,,---,0.01,VWS V14.01,2013-05-03 15:53:00,
2013-05-03 10:58:00,50.1,45.2,30.09,North,351,5.0,11.0,83,0.00,,---,0.01,VWS V14.01,2013-05-03 15:58:00,
2013-05-03 11:03:00,49.6,45.0,30.09,NNE,20,2.0,11.0,84,0.00,,---,0.01,VWS V14.01,2013-05-03 16:03:00,
2013-05-03 11:08:00,49.5,44.2,30.09,WNW,285,4.0,8.0,82,0.00,,---,0.01,VWS V14.01,2013-05-03 16:08:00,
2013-05-03 11:13:00,49.2,44.3,30.09,WSW,257,3.0,10.0,83,0.00,,---,0.01,VWS V14.01,2013-05-03 16:13:00,
2013-05-03 11:18:00,48.9,44.0,30.09,NW,325,1.0,10.0,83,0.00,,---,0.01,VWS V14.01,2013-05-03 16:18:00,
2013-05-03 11:23:00,48.7,44.4,30.09,WNW,296,9.0,10.0,85,0.00,,---,0.01,VWS V14.01,2013-05-03 16:23:00,
2013-05-03 11:28:00,48.5,43.9,30.09,WNW,286,8.0,14.0,84,0.00,,---,0.01,VWS V14.01,2013-05-03 16:28:00,
2013-05-03 11:33:00,49.4,45.1,30.09,WSW,247,3.0,14.0,85,0.00,,---,0.01,VWS V14.01,2013-05-03 16:33:00,
2013-05-03 11:38:00,49.3,44.7,30.09,West,281,0.0,4.0,84,0.00,,---,0.01,VWS V14.01,2013-05-03 16:38:00,
2013-05-03 11:44:00,48.6,44.0,30.09,WNW,286,5.0,12.0,84,0.00,,---,0.01,VWS V14.01,2013-05-03 16:44:00,
2013-05-03 11:49:00,47.8,43.2,30.09,WNW,300,13.0,13.0,84,0.00,,---,0.01,VWS V14.01,2013-05-03 16:49:00,
2013-05-03 11:54:00,47.2,42.6,30.09,SW,229,9.0,15.0,84,0.00,,---,0.01,VWS V14.01,2013-05-03 16:54:00,
2013-05-03 11:59:00,47.2,43.2,30.09,West,277,7.0,15.0,86,0.00,,---,0.01,VWS V14.01,2013-05-03 16:59:00,
2013-05-03 12:04:00,47.5,43.5,30.09,West,265,2.0,15.0,86,0.00,,---,0.01,VWS V14.01,2013-05-03 17:04:00,
2013-05-03 12:06:00,47.8,43.8,30.09,SW,223,4.0,15.0,86,0.00,,---,0.01,VWS V14.01,2013-05-03 17:06:00,
2013-05-03 12:09:00,48.1,44.1,30.09,WNW,296,6.0,9.0,86,0.00,,---,0.01,VWS V14.01,2013-05-03 17:09:00,
2013-05-03 12:14:00,48.3,43.7,30.09,SW,233,2.0,9.0,84,0.00,,---,0.01,VWS V14.01,2013-05-03 17:14:00,
2013-05-03 12:19:00,48.6,43.7,30.09,WSW,255,4.0,9.0,83,0.00,,---,0.01,VWS V14.01,2013-05-03 17:19:00,
2013-05-03 12:24:00,48.3,43.7,30.09,WNW,295,6.0,10.0,84,0.00,,---,0.01,VWS V14.01,2013-05-03 17:24:00,
2013-05-03 12:29:00,48.1,43.2,30.09,WSW,249,6.0,14.0,83,0.00,,---,0.01,VWS V14.01,2013-05-03 17:29:00,
2013-05-03 12:34:00,48.1,43.2,30.09,WSW,245,2.0,14.0,83,0.00,,---,0.01,VWS V14.01,2013-05-03 17:34:00,
2013-05-03 12:36:00,48.2,43.3,30.09,NW,317,3.0,14.0,83,0.00,,---,0.01,VWS V14.01,2013-05-03 17:36:00,
2013-05-03 12:39:00,48.4,43.8,30.09,NNW,327,4.0,10.0,84,0.00,,---,0.01,VWS V14.01,2013-05-03 17:39:00,
2013-05-03 12:44:00,48.3,43.1,30.09,West,279,4.0,13.0,82,0.00,,---,0.01,VWS V14.01,2013-05-03 17:44:00,
2013-05-03 12:49:00,48.4,43.2,30.09,SW,236,4.0,13.0,82,0.00,,---,0.01,VWS V14.01,2013-05-03 17:49:00,
2013-05-03 12:54:00,48.7,43.5,30.09,West,277,1.0,13.0,82,0.00,,---,0.01,VWS V14.01,2013-05-03 17:54:00,
2013-05-03 12:59:00,49.3,44.0,30.08,WNW,286,3.0,13.0,82,0.00,,---,0.01,VWS V14.01,2013-05-03 17:59:00,
2013-05-03 13:04:00,50.1,44.2,30.08,WNW,284,8.0,13.0,80,0.00,,---,0.01,VWS V14.01,2013-05-03 18:04:00,
2013-05-03 13:09:00,49.6,43.7,30.09,SW,222,1.0,7.0,80,0.00,,---,0.01,VWS V14.01,2013-05-03 18:09:00,
2013-05-03 13:14:00,49.5,43.9,30.08,WNW,300,2.0,13.0,81,0.00,,---,0.01,VWS V14.01,2013-05-03 18:14:00,
2013-05-03 13:19:00,50.3,45.0,30.08,NNE,27,6.0,13.0,82,0.00,,---,0.01,VWS V14.01,2013-05-03 18:19:00,
2013-05-03 13:24:00,50.1,43.8,30.08,ESE,120,2.0,13.0,79,0.00,,---,0.01,VWS V14.01,2013-05-03 18:24:00,
2013-05-03 13:29:00,50.0,43.4,30.08,WNW,298,8.0,14.0,78,0.00,,---,0.01,VWS V14.01,2013-05-03 18:29:00,
2013-05-03 13:34:00,49.6,43.7,30.08,South,185,5.0,14.0,80,0.00,,---,0.01,VWS V14.01,2013-05-03 18:34:00,
2013-05-03 13:36:00,49.7,43.8,30.08,West,261,3.0,14.0,80,0.00,,---,0.01,VWS V14.01,2013-05-03 18:36:00,
2013-05-03 13:39:00,50.0,44.1,30.08,NW,319,1.0,11.0,80,0.00,,---,0.01,VWS V14.01,2013-05-03 18:39:00,
2013-05-03 13:44:00,51.3,45.0,30.08,WSW,252,12.0,12.0,79,0.00,,---,0.01,VWS V14.01,2013-05-03 18:44:00,
2013-05-03 13:49:00,51.3,44.3,30.08,NW,305,7.0,15.0,77,0.00,,---,0.01,VWS V14.01,2013-05-03 18:49:00,
2013-05-03 13:54:00,51.4,44.8,30.08,ENE,57,2.0,15.0,78,0.00,,---,0.01,VWS V14.01,2013-05-03 18:54:00,
2013-05-03 13:59:00,52.5,45.5,30.08,ENE,67,4.0,15.0,77,0.00,,---,0.01,VWS V14.01,2013-05-03 18:59:00,
2013-05-03 14:04:00,53.2,45.5,30.08,WSW,257,4.0,15.0,75,0.00,,---,0.01,VWS V14.01,2013-05-03 19:04:00,
2013-05-03 14:06:00,53.0,44.6,30.08,West,262,2.0,15.0,73,0.00,,---,0.01,VWS V14.01,2013-05-03 19:06:00,
2013-05-03 14:09:00,52.6,44.2,30.08,West,275,3.0,9.0,73,0.00,,---,0.01,VWS V14.01,2013-05-03 19:09:00,
2013-05-03 14:14:00,53.1,45.0,30.07,WSW,258,6.0,9.0,74,0.00,,---,0.01,VWS V14.01,2013-05-03 19:14:00,
2013-05-03 14:19:00,53.3,44.5,30.07,West,273,8.0,15.0,72,0.00,,---,0.01,VWS V14.01,2013-05-03 19:19:00,
2013-05-03 14:24:00,53.7,45.3,30.07,West,276,3.0,15.0,73,0.00,,---,0.01,VWS V14.01,2013-05-03 19:24:00,
2013-05-03 14:29:00,54.4,46.3,30.07,West,274,6.0,15.0,74,0.00,,---,0.01,VWS V14.01,2013-05-03 19:29:00,
2013-05-03 14:34:00,54.5,46.0,30.07,NW,325,7.0,15.0,73,0.00,,---,0.01,VWS V14.01,2013-05-03 19:34:00,
2013-05-03 14:36:00,54.3,45.5,30.06,WNW,293,6.0,15.0,72,0.00,,---,0.01,VWS V14.01,2013-05-03 19:36:00,
2013-05-03 14:39:00,54.1,45.7,30.06,ENE,78,1.0,6.0,73,0.00,,---,0.01,VWS V14.01,2013-05-03 19:39:00,
2013-05-03 14:44:00,54.4,45.9,30.06,NW,316,2.0,9.0,73,0.00,,---,0.01,VWS V14.01,2013-05-03 19:44:00,
2013-05-03 14:49:00,55.8,47.3,30.06,WNW,283,2.0,11.0,73,0.00,,---,0.01,VWS V14.01,2013-05-03 19:49:00,
2013-05-03 14:54:00,56.2,45.8,30.05,ENE,75,4.0,12.0,68,0.00,,---,0.01,VWS V14.01,2013-05-03 19:54:00,
2013-05-03 14:59:00,55.9,46.3,30.05,SSW,194,3.0,12.0,70,0.00,,---,0.01,VWS V14.01,2013-05-03 19:59:00,
2013-05-03 15:04:00,55.7,45.7,30.05,SW,229,2.0,12.0,69,0.00,,---,0.01,VWS V14.01,2013-05-03 20:04:00,
2013-05-03 15:06:00,55.9,47.0,30.05,West,271,2.0,12.0,72,0.00,,---,0.01,VWS V14.01,2013-05-03 20:06:00,
2013-05-03 15:09:00,56.8,47.1,30.05,West,277,4.0,7.0,70,0.00,,---,0.01,VWS V14.01,2013-05-03 20:09:00,
2013-05-03 15:14:00,57.0,47.3,30.05,WNW,301,7.0,9.0,70,0.00,,---,0.01,VWS V14.01,2013-05-03 20:14:00,
2013-05-03 15:19:00,57.3,45.7,30.04,North,5,9.0,11.0,65,0.00,,---,0.01,VWS V14.01,2013-05-03 20:19:00,
2013-05-03 15:24:00,56.8,46.0,30.04,NW,305,3.0,13.0,67,0.00,,---,0.01,VWS V14.01,2013-05-03 20:24:00,
2013-05-03 15:29:00,57.2,46.4,30.04,North,5,2.0,13.0,67,0.00,,---,0.01,VWS V14.01,2013-05-03 20:29:00,
2013-05-03 15:34:00,57.6,45.5,30.03,WNW,297,1.0,13.0,64,0.00,,---,0.01,VWS V14.01,2013-05-03 20:34:00,
2013-05-03 15:36:00,57.9,47.0,30.03,NNE,21,2.0,13.0,67,0.00,,---,0.01,VWS V14.01,2013-05-03 20:36:00,
2013-05-03 15:39:00,57.8,46.5,30.03,ENE,74,3.0,5.0,66,0.00,,---,0.01,VWS V14.01,2013-05-03 20:39:00,
2013-05-03 15:44:00,57.1,45.5,30.03,NNW,339,3.0,8.0,65,0.00,,---,0.01,VWS V14.01,2013-05-03 20:44:00,
2013-05-03 15:49:00,57.1,46.3,30.03,SSW,205,4.0,11.0,67,0.00,,---,0.01,VWS V14.01,2013-05-03 20:49:00,
2013-05-03 15:54:00,56.4,45.2,30.03,NNE,26,2.0,11.0,66,0.00,,---,0.01,VWS V14.01,2013-05-03 20:54:00,
2013-05-03 15:59:00,56.8,45.6,30.03,West,269,8.0,11.0,66,0.00,,---,0.01,VWS V14.01,2013-05-03 20:59:00,
2013-05-03 16:04:00,58.0,45.9,30.02,SW,236,5.0,14.0,64,0.00,,---,0.01,VWS V14.01,2013-05-03 21:04:00,
2013-05-03 16:09:00,59.2,47.0,30.03,ENE,59,2.0,5.0,64,0.00,,---,0.01,VWS V14.01,2013-05-03 21:09:00,
2013-05-03 16:14:00,60.0,47.8,30.02,NNW,335,1.0,7.0,64,0.00,,---,0.01,VWS V14.01,2013-05-03 21:14:00,
2013-05-03 16:19:00,59.1,45.2,30.02,NNE,27,3.0,7.0,60,0.00,,---,0.01,VWS V14.01,2013-05-03 21:19:00,
2013-05-03 16:24:00,57.7,45.2,30.02,NNE,30,1.0,7.0,63,0.00,,---,0.01,VWS V14.01,2013-05-03 21:24:00,
2013-05-03 16:29:00,58.7,46.2,30.02,North,5,3.0,9.0,63,0.00,,---,0.01,VWS V14.01,2013-05-03 21:29:00,
2013-05-03 16:34:00,59.8,47.6,30.02,West,281,1.0,9.0,64,0.00,,---,0.01,VWS V14.01,2013-05-03 21:34:00,
2013-05-03 16:36:00,60.1,47.0,30.02,NNW,327,4.0,9.0,62,0.00,,---,0.01,VWS V14.01,2013-05-03 21:36:00,
2013-05-03 16:39:00,60.4,46.5,30.02,NE,53,2.0,5.0,60,0.00,,---,0.01,VWS V14.01,2013-05-03 21:39:00,
2013-05-03 16:44:00,60.0,47.8,30.02,West,274,7.0,10.0,64,0.00,,---,0.01,VWS V14.01,2013-05-03 21:44:00,
2013-05-03 16:49:00,60.7,48.5,30.02,NNE,27,2.0,10.0,64,0.00,,---,0.01,VWS V14.01,2013-05-03 21:49:00,
2013-05-03 16:54:00,61.3,47.3,30.02,WNW,302,5.0,10.0,60,0.00,,---,0.01,VWS V14.01,2013-05-03 21:54:00,
2013-05-03 16:59:00,61.3,45.5,30.02,SW,227,4.0,16.0,56,0.00,,---,0.01,VWS V14.01,2013-05-03 21:59:00,
2013-05-03 17:04:00,60.6,45.3,30.02,North,5,1.0,16.0,57,0.00,,---,0.01,VWS V14.01,2013-05-03 22:04:00,
2013-05-03 17:06:00,60.5,45.7,30.01,WSW,240,0.0,16.0,58,0.00,,---,0.01,VWS V14.01,2013-05-03 22:06:00,
2013-05-03 17:09:00,60.7,46.3,30.01,WNW,302,6.0,9.0,59,0.00,,---,0.01,VWS V14.01,2013-05-03 22:09:00,
2013-05-03 17:14:00,61.5,47.1,30.02,WNW,292,8.0,10.0,59,0.00,,---,0.01,VWS V14.01,2013-05-03 22:14:00,
2013-05-03 17:20:00,61.4,47.0,30.02,NE,34,2.0,10.0,59,0.00,,---,0.01,VWS V14.01,2013-05-03 22:20:00,
2013-05-03 17:25:00,61.5,46.1,30.02,NW,306,7.0,14.0,57,0.00,,---,0.01,VWS V14.01,2013-05-03 22:25:00,
2013-05-03 17:30:00,60.9,45.1,30.02,West,280,4.0,14.0,56,0.00,,---,0.01,VWS V14.01,2013-05-03 22:30:00,
2013-05-03 17:35:00,60.9,46.0,30.02,West,275,4.0,14.0,58,0.00,,---,0.01,VWS V14.01,2013-05-03 22:35:00,
2013-05-03 17:36:00,61.1,46.2,30.02,North,9,5.0,14.0,58,0.00,,---,0.01,VWS V14.01,2013-05-03 22:36:00,
2013-05-03 17:40:00,61.3,46.9,30.02,SE,134,1.0,10.0,59,0.00,,---,0.01,VWS V14.01,2013-05-03 22:40:00,
2013-05-03 17:45:00,60.7,46.3,30.02,WNW,296,3.0,10.0,59,0.00,,---,0.01,VWS V14.01,2013-05-03 22:45:00,
2013-05-03 17:50:00,60.6,45.8,30.02,NW,311,2.0,10.0,58,0.00,,---,0.01,VWS V14.01,2013-05-03 22:50:00,
2013-05-03 17:55:00,60.6,45.3,30.02,North,355,4.0,13.0,57,0.00,,---,0.01,VWS V14.01,2013-05-03 22:55:00,
2013-05-03 18:00:00,60.3,44.1,30.02,NNE,15,3.0,13.0,55,0.00,,---,0.01,VWS V14.01,2013-05-03 23:00:00,
2013-05-03 18:05:00,60.0,45.7,30.02,East,101,0.0,13.0,59,0.00,,---,0.01,VWS V14.01,2013-05-03 23:05:00,
2013-05-03 18:06:00,59.8,44.5,30.02,NNE,25,0.0,13.0,57,0.00,,---,0.01,VWS V14.01,2013-05-03 23:06:00,
2013-05-03 18:10:00,59.7,44.9,30.02,WSW,250,0.0,5.0,58,0.00,,---,0.01,VWS V14.01,2013-05-03 23:10:00,
2013-05-03 18:15:00,59.4,44.6,30.02,SSE,159,1.0,5.0,58,0.00,,---,0.01,VWS V14.01,2013-05-03 23:15:00,
2013-05-03 18:20:00,59.1,45.2,30.02,North,5,0.0,7.0,60,0.00,,---,0.01,VWS V14.01,2013-05-03 23:20:00,
2013-05-03 18:25:00,59.1,44.8,30.02,NW,321,2.0,7.0,59,0.00,,---,0.01,VWS V14.01,2013-05-03 23:25:00,
2013-05-03 18:30:00,59.1,45.2,30.02,West,277,2.0,7.0,60,0.00,,---,0.01,VWS V14.01,2013-05-03 23:30:00,
2013-05-03 18:35:00,58.8,46.2,30.02,ENE,71,1.0,7.0,63,0.00,,---,0.01,VWS V14.01,2013-05-03 23:35:00,
2013-05-03 18:40:00,58.4,43.2,30.02,SSE,152,1.0,6.0,57,0.00,,---,0.01,VWS V14.01,2013-05-03 23:40:00,
2013-05-03 18:45:00,58.0,44.2,30.02,NNW,346,1.0,6.0,60,0.00,,---,0.01,VWS V14.01,2013-05-03 23:45:00,
2013-05-03 18:50:00,57.7,43.9,30.02,ESE,119,0.0,8.0,60,0.00,,---,0.01,VWS V14.01,2013-05-03 23:50:00,
2013-05-03 18:55:00,57.6,43.0,30.02,WNW,296,1.0,8.0,58,0.00,,---,0.01,VWS V14.01,2013-05-03 23:55:00,
2013-05-03 19:00:00,57.5,45.0,30.02,East,93,0.0,8.0,63,0.00,,---,0.01,VWS V14.01,2013-05-04 00:00:00,
2013-05-03 19:05:00,56.9,44.0,30.02,West,279,1.0,8.0,62,0.00,,---,0.01,VWS V14.01,2013-05-04 00:05:00,
2013-05-03 19:06:00,56.8,43.9,30.02,West,263,0.0,8.0,62,0.00,,---,0.01,VWS V14.01,2013-05-04 00:06:00,
2013-05-03 19:10:00,56.7,44.3,30.02,NNW,347,0.0,5.0,63,0.00,,---,0.01,VWS V14.01,2013-05-04 00:10:00,
2013-05-03 19:15:00,56.4,43.6,30.02,North,5,1.0,5.0,62,0.00,,---,0.01,VWS V14.01,2013-05-04 00:15:00,
2013-05-03 19:20:00,56.1,44.9,30.02,North,5,0.0,5.0,66,0.00,,---,0.01,VWS V14.01,2013-05-04 00:20:00,
2013-05-03 19:25:00,55.7,44.5,30.02,NW,322,0.0,5.0,66,0.00,,---,0.01,VWS V14.01,2013-05-04 00:25:00,
2013-05-03 19:30:00,55.2,44.5,30.02,North,5,0.0,5.0,67,0.00,,---,0.01,VWS V14.01,2013-05-04 00:30:00,
2013-05-03 19:35:00,54.7,44.0,30.02,North,5,0.0,5.0,67,0.00,,---,0.01,VWS V14.01,2013-05-04 00:35:00,
2013-05-03 19:36:00,54.6,44.7,30.02,North,5,0.0,5.0,69,0.00,,---,0.01,VWS V14.01,2013-05-04 00:36:00,
2013-05-03 19:40:00,54.1,44.5,30.02,North,5,0.0,0.0,70,0.00,,---,0.01,VWS V14.01,2013-05-04 00:40:00,
2013-05-03 19:45:00,53.6,43.7,30.03,North,5,0.0,0.0,69,0.00,,---,0.01,VWS V14.01,2013-05-04 00:45:00,
2013-05-03 19:50:00,53.4,44.6,30.03,North,5,0.0,0.0,72,0.00,,---,0.01,VWS V14.01,2013-05-04 00:50:00,
2013-05-03 19:55:00,52.8,43.7,30.03,North,5,0.0,0.0,71,0.00,,---,0.01,VWS V14.01,2013-05-04 00:55:00,
2013-05-03 20:00:00,52.0,44.0,30.03,North,5,0.0,0.0,74,0.00,,---,0.01,VWS V14.01,2013-05-04 01:00:00,
2013-05-03 20:05:00,51.4,44.4,30.04,North,5,0.0,0.0,77,0.00,,---,0.01,VWS V14.01,2013-05-04 01:05:00,
2013-05-03 20:06:00,51.3,44.3,30.04,North,5,0.0,0.0,77,0.00,,---,0.01,VWS V14.01,2013-05-04 01:06:00,
2013-05-03 20:15:00,50.5,44.2,30.04,North,5,0.0,0.0,79,0.00,,---,0.01,VWS V14.01,2013-05-04 01:15:00,
2013-05-03 20:20:00,49.8,44.5,30.04,North,5,0.0,0.0,82,0.00,,---,0.01,VWS V14.01,2013-05-04 01:20:00,
2013-05-03 20:25:00,49.3,44.4,30.04,North,5,0.0,0.0,83,0.00,,---,0.01,VWS V14.01,2013-05-04 01:25:00,
2013-05-03 20:30:00,48.9,44.6,30.04,North,5,0.0,0.0,85,0.00,,---,0.01,VWS V14.01,2013-05-04 01:30:00,
2013-05-03 20:35:00,48.5,44.5,30.04,North,5,0.0,0.0,86,0.00,,---,0.01,VWS V14.01,2013-05-04 01:35:00,
2013-05-03 20:36:00,48.4,44.4,30.04,North,5,0.0,0.0,86,0.00,,---,0.01,VWS V14.01,2013-05-04 01:36:00,
2013-05-03 20:40:00,48.2,44.8,30.04,North,5,0.0,0.0,88,0.00,,---,0.01,VWS V14.01,2013-05-04 01:40:00,
2013-05-03 20:45:00,47.9,44.8,30.04,North,5,0.0,0.0,89,0.00,,---,0.01,VWS V14.01,2013-05-04 01:45:00,
2013-05-03 20:50:00,47.5,44.4,30.05,North,5,0.0,0.0,89,0.00,,---,0.01,VWS V14.01,2013-05-04 01:50:00,
2013-05-03 20:55:00,47.0,44.2,30.05,North,5,0.0,0.0,90,0.00,,---,0.01,VWS V14.01,2013-05-04 01:55:00,
2013-05-03 21:00:00,46.7,44.2,30.05,North,5,0.0,0.0,91,0.00,,---,0.01,VWS V14.01,2013-05-04 02:00:00,
2013-05-03 21:05:00,46.5,44.3,30.05,North,5,0.0,0.0,92,0.00,,---,0.01,VWS V14.01,2013-05-04 02:05:00,
2013-05-03 21:06:00,46.4,44.2,30.05,North,5,0.0,0.0,92,0.00,,---,0.01,VWS V14.01,2013-05-04 02:06:00,
2013-05-03 21:10:00,46.2,44.0,30.05,North,5,0.0,0.0,92,0.00,,---,0.01,VWS V14.01,2013-05-04 02:10:00,
2013-05-03 21:15:00,45.9,43.7,30.05,North,5,0.0,0.0,92,0.00,,---,0.01,VWS V14.01,2013-05-04 02:15:00,
2013-05-03 21:20:00,45.7,43.8,30.05,North,5,0.0,0.0,93,0.00,,---,0.01,VWS V14.01,2013-05-04 02:20:00,
2013-05-03 21:25:00,45.5,43.6,30.05,North,5,0.0,0.0,93,0.00,,---,0.01,VWS V14.01,2013-05-04 02:25:00,
2013-05-03 21:30:00,45.4,43.8,30.05,North,5,0.0,0.0,94,0.00,,---,0.01,VWS V14.01,2013-05-04 02:30:00,
2013-05-03 21:35:00,45.4,43.8,30.06,North,5,0.0,0.0,94,0.00,,---,0.01,VWS V14.01,2013-05-04 02:35:00,
2013-05-03 21:36:00,45.4,43.8,30.06,North,5,0.0,0.0,94,0.00,,---,0.01,VWS V14.01,2013-05-04 02:36:00,
2013-05-03 21:40:00,45.2,43.6,30.06,North,5,0.0,0.0,94,0.00,,---,0.01,VWS V14.01,2013-05-04 02:40:00,
2013-05-03 21:45:00,45.0,43.4,30.06,North,5,0.0,0.0,94,0.00,,---,0.01,VWS V14.01,2013-05-04 02:45:00,
2013-05-03 21:50:00,44.8,43.2,30.06,North,5,0.0,0.0,94,0.00,,---,0.01,VWS V14.01,2013-05-04 02:50:00,
2013-05-03 21:55:00,44.6,43.3,30.06,North,5,0.0,0.0,95,0.00,,---,0.01,VWS V14.01,2013-05-04 02:55:00,
2013-05-03 22:00:00,44.4,43.1,30.06,North,5,0.0,0.0,95,0.00,,---,0.01,VWS V14.01,2013-05-04 03:00:00,
2013-05-03 22:05:00,44.2,42.9,30.07,North,5,0.0,0.0,95,0.00,,---,0.01,VWS V14.01,2013-05-04 03:05:00,
2013-05-03 22:10:00,44.2,42.9,30.06,North,5,0.0,0.0,95,0.00,,---,0.01,VWS V14.01,2013-05-04 03:10:00,
2013-05-03 22:15:00,44.1,42.8,30.06,North,5,0.0,0.0,95,0.00,,---,0.01,VWS V14.01,2013-05-04 03:15:00,
2013-05-03 22:20:00,44.0,42.7,30.06,North,5,0.0,0.0,95,0.00,,---,0.01,VWS V14.01,2013-05-04 03:20:00,
2013-05-03 22:25:00,43.7,42.4,30.06,North,5,0.0,0.0,95,0.00,,---,0.01,VWS V14.01,2013-05-04 03:25:00,
2013-05-03 22:30:00,43.6,42.3,30.06,North,5,0.0,0.0,95,0.00,,---,0.01,VWS V14.01,2013-05-04 03:30:00,
2013-05-03 22:35:00,43.5,42.2,30.06,North,5,0.0,0.0,95,0.00,,---,0.01,VWS V14.01,2013-05-04 03:35:00,
2013-05-03 22:36:00,43.5,42.2,30.06,North,5,0.0,0.0,95,0.00,,---,0.01,VWS V14.01,2013-05-04 03:36:00,
2013-05-03 22:40:00,43.4,42.1,30.06,North,5,0.0,0.0,95,0.00,,---,0.01,VWS V14.01,2013-05-04 03:40:00,
2013-05-03 22:45:00,43.3,42.0,30.06,North,5,0.0,0.0,95,0.00,,---,0.01,VWS V14.01,2013-05-04 03:45:00,
2013-05-03 22:50:00,43.2,42.1,30.06,North,5,0.0,0.0,96,0.00,,---,0.01,VWS V14.01,2013-05-04 03:50:00,
2013-05-03 22:55:00,43.2,42.1,30.06,North,5,0.0,0.0,96,0.00,,---,0.01,VWS V14.01,2013-05-04 03:55:00,
2013-05-03 23:01:00,43.1,42.0,30.06,North,5,0.0,0.0,96,0.00,,---,0.01,VWS V14.01,2013-05-04 04:01:00,
2013-05-03 23:06:00,42.9,41.8,30.06,North,5,0.0,0.0,96,0.00,,---,0.01,VWS V14.01,2013-05-04 04:06:00,
2013-05-03 23:11:00,42.7,41.6,30.06,North,5,0.0,0.0,96,0.00,,---,0.01,VWS V14.01,2013-05-04 04:11:00,
2013-05-03 23:16:00,42.6,41.5,30.05,North,5,0.0,0.0,96,0.00,,---,0.01,VWS V14.01,2013-05-04 04:16:00,
2013-05-03 23:21:00,42.5,41.4,30.05,North,5,0.0,0.0,96,0.00,,---,0.01,VWS V14.01,2013-05-04 04:21:00,
2013-05-03 23:26:00,42.4,41.3,30.05,North,5,0.0,0.0,96,0.00,,---,0.01,VWS V14.01,2013-05-04 04:26:00,
2013-05-03 23:31:00,42.3,41.2,30.05,North,5,0.0,0.0,96,0.00,,---,0.01,VWS V14.01,2013-05-04 04:31:00,
2013-05-03 23:36:00,42.2,41.1,30.05,North,5,0.0,0.0,96,0.00,,---,0.01,VWS V14.01,2013-05-04 04:36:00,
2013-05-03 23:41:00,42.1,41.0,30.05,North,5,0.0,0.0,96,0.00,,---,0.01,VWS V14.01,2013-05-04 04:41:00,
2013-05-03 23:46:00,42.0,40.9,30.05,North,5,0.0,0.0,96,0.00,,---,0.01,VWS V14.01,2013-05-04 04:46:00,
2013-05-03 23:51:00,41.8,40.8,30.05,North,5,0.0,0.0,96,0.00,,---,0.01,VWS V14.01,2013-05-04 04:51:00,
2013-05-03 23:56:00,41.7,40.7,30.05,North,5,0.0,0.0,96,0.00,,---,0.01,VWS V14.01,2013-05-04 04:56:00,